SCP
0 0 0 0 0 0 0 0 0 0 0 0 0 0 0 0 0 0 0 0 1 1 1 1 1 1 1 1 1 1 1 1 1 1 0 0 0 0 0 0 1 1 1
0 0 0 0 0 0 0 0 0 0 0 0 0 0 0 0 0 0 0 0 1 1 1 1 1 1 1 1 1 1 1 1 1 0 0 1 1 0 0 0 1 1 1
0 0 0 0 0 0 0 0 0 0 0 0 0 0 0 0 0 0 0 1 1 1 1 1 1 1 1 1 1 0 1 1 0 0 0 0 1 0 0 0 0 1 1
0 0 0 0 0 0 0 0 0 0 0 0 0 0 0 0 0 0 0 0 1 1 1 1 1 1 1 1 1 0 0 1 1 1 1 1 1 1 1 0 1 1 1
0 0 0 0 0 0 0 0 0 0 0 0 0 0 0 0 0 0 0 0 0 1 1 1 1 1 1 1 1 1 1 1 1 1 1 1 1 1 1 1 1 1 1
1 0 0 0 0 0 0 0 0 0 0 0 0 0 0 0 0 0 0 0 0 0 1 1 1 1 1 1 1 1 1 1 1 1 1 1 1 1 1 1 1 1 1
1 1 1 1 0 0 0 0 0 0 0 0 0 0 0 0 0 0 0 0 0 1 1 1 1 1 1 1 1 1 1 1 1 1 1 1 1 1 1 1 1 1 1
1 1 1 1 1 1 1 1 1 1 1 1 0 0 0 0 0 0 0 0 1 1 1 1 1 1 1 1 1 1 1 1 1 2 2 1 1 1 1 1 1 1 1
1 1 1 1 1 1 1 1 1 1 1 1 1 1 1 1 1 1 1 1 1 1 2 2 1 1 1 1 1 1 1 1 1 1 1 1 1 1 1 1 1 1 1
1 1 1 1 1 1 1 1 1 1 1 1 1 1 1 1 1 1 1 1 1 1 2 2 2 1 1 1 1 1 1 1 1 1 1 1 1 1 1 1 1 1 1
1 1 1 1 1 2 1 1 1 1 1 1 1 1 1 1 1 1 1 1 1 1 2 2 2 1 1 1 1 1 1 1 1 1 1 1 1 1 1 1 1 1 1
1 1 1 1 2 2 1 1 1 1 1 1 1 2 2 2 2 1 1 1 1 1 2 2 1 1 1 1 1 1 1 1 0 0 0 0 1 1 1 1 1 1 1
1 1 1 2 2 2 1 1 1 1 1 1 1 1 2 2 2 2 2 1 1 1 1 1 1 1 1 1 1 0 0 0 0 0 0 0 0 0 0 0 0 0 0
1 1 2 2 2 2 2 2 2 1 1 1 1 1 2 2 2 2 2 2 1 1 1 1 1 1 1 1 1 0 0 0 0 0 0 0 0 0 0 0 0 0 0
2 2 2 2 2 2 2 2 1 1 1 2 2 2 2 2 2 2 2 2 1 1 1 1 1 1 1 1 1 0 0 0 0 0 0 0 0 0 0 0 0 0 0
2 2 2 3 3 3 2 2 1 1 1 2 2 2 3 3 3 3 2 2 2 1 1 1 1 1 1 1 1 1 0 0 0 0 0 0 0 0 0 0 0 0 0
2 2 3 3 3 3 2 1 1 1 1 2 2 2 2 3 3 2 2 2 2 2 1 1 1 1 1 1 1 1 1 0 0 0 0 0 0 0 0 0 0 0 0
2 2 3 3 4 3 3 2 1 1 2 2 2 2 2 2 2 2 2 2 2 2 1 1 1 1 1 1 1 1 1 0 0 0 0 0 0 0 0 0 0 0 0
2 2 3 3 3 3 3 2 2 2 2 2 2 2 2 2 2 2 2 3 3 2 2 1 1 1 1 1 1 1 0 0 0 0 0 0 0 0 0 0 0 0 0
2 2 3 3 3 3 3 2 3 3 2 2 2 3 3 3 3 3 3 3 3 3 2 2 1 1 1 1 1 1 1 0 0 0 0 0 0 0 0 0 0 0 0
2 2 2 3 3 3 3 3 3 3 3 3 3 3 3 3 3 3 3 3 3 3 2 2 2 1 1 1 1 1 1 0 0 0 0 0 0 0 0 0 0 0 0
2 2 3 3 4 3 3 3 3 4 4 3 3 4 4 4 3 3 3 3 3 3 3 3 2 2 2 1 1 1 1 1 0 0 0 0 0 0 0 0 0 0 0
2 2 3 4 5 4 3 3 4 4 4 4 4 4 4 4 4 3 3 3 2 2 2 3 3 3 3 2 1 1 1 1 1 1 0 0 0 0 0 0 0 0 0
2 3 3 4 5 4 3 2 3 3 4 4 3 3 4 4 4 4 3 3 2 2 2 2 3 4 3 2 2 2 2 1 1 1 0 0 0 0 0 0 0 0 0
3 3 3 3 3 3 2 2 2 2 3 3 3 3 3 3 3 3 3 2 2 2 1 2 2 3 3 2 2 3 3 2 1 1 1 0 0 0 0 0 0 0 0
3 3 3 3 3 3 2 2 1 2 2 3 3 3 3 3 3 2 2 2 2 1 1 1 2 2 3 2 2 3 3 3 2 1 1 1 0 0 0 0 0 0 0
Wind_Speed
2 2 2 2 3 3 4 4 4 5 5 5 4 5 4 3 3 2 1 3 3 3 4 4 3 4 4 4 5 5 5 5 6 5 5 5 5 5 4 5 5 5 6
2 2 3 3 3 3 3 4 5 5 4 4 4 4 4 3 3 2 2 1 2 3 3 3 3 3 3 4 4 4 4 5 5 5 5 4 4 4 4 5 6 6 6
3 3 3 3 3 3 4 4 5 5 4 4 5 4 3 3 3 2 2 2 1 1 2 2 2 2 3 3 3 4 4 4 4 4 4 4 4 4 5 5 5 5 5
3 3 3 3 3 3 3 4 4 4 4 4 3 3 3 2 3 2 2 2 1 1 1 1 1 1 2 1 2 3 4 4 4 3 4 5 5 5 5 5 5 5 5
3 3 3 3 3 3 3 4 3 3 4 4 3 3 2 2 2 2 1 1 1 1 1 1 1 1 1 1 1 2 3 3 3 3 3 4 5 5 5 5 5 5 5
3 3 3 3 3 3 3 3 4 3 3 3 4 3 2 2 2 1 1 1 0 0 0 1 1 0 0 1 0 1 2 2 2 2 2 3 4 4 4 4 5 4 4
3 3 3 3 3 3 3 3 3 4 2 2 3 3 2 2 1 1 0 0 1 1 1 1 0 0 1 1 1 1 2 3 3 3 3 2 2 3 4 4 4 4 4
2 3 3 3 3 3 3 3 3 2 1 1 2 2 1 2 2 1 0 0 1 0 1 1 1 1 1 1 0 2 3 3 3 3 2 2 2 1 2 2 3 4 4
2 2 3 3 3 3 3 3 3 3 2 1 1 3 2 2 1 1 1 1 1 0 1 0 1 1 1 1 1 1 2 2 2 2 1 1 2 1 1 2 2 3 3
2 2 3 3 3 2 3 3 3 2 3 2 1 1 1 3 2 0 1 1 1 1 1 1 1 1 1 1 1 1 1 1 1 2 1 0 1 1 1 1 2 2 2
1 2 2 3 3 2 3 3 2 2 2 3 2 2 2 1 2 2 1 1 1 1 1 1 1 1 1 1 1 1 1 1 2 1 0 0 1 1 0 0 1 1 1
0 1 2 2 3 3 3 3 3 3 3 2 2 2 3 2 3 3 2 2 1 1 1 1 1 1 1 1 1 3 3 4 4 3 3 2 2 2 2 1 1 2 1
1 2 2 2 2 3 3 3 3 3 3 3 3 2 2 2 2 3 2 2 1 1 1 1 1 1 1 1 1 3 3 4 4 3 3 3 4 3 3 3 3 2 2
2 2 2 2 2 3 3 3 2 3 2 3 3 3 2 2 3 3 3 3 1 1 1 2 0 1 1 1 1 2 2 4 3 3 3 4 4 4 4 5 5 5 5
2 3 3 3 2 3 3 3 2 3 2 3 3 3 3 2 3 3 3 3 3 2 2 2 2 1 1 1 2 2 2 3 4 4 4 4 4 4 5 5 5 5 4
2 2 2 2 2 2 2 3 3 3 3 3 2 3 3 2 2 3 3 3 3 3 2 2 2 1 1 2 3 2 2 4 4 4 4 3 3 3 4 4 4 4 4
1 2 2 2 2 3 3 3 3 3 3 3 3 3 3 3 2 2 3 3 3 3 3 2 1 1 2 2 2 2 2 2 2 3 3 3 3 3 3 3 4 4 5
2 2 2 2 3 3 3 3 3 3 4 4 4 3 4 3 3 2 3 3 3 3 3 3 2 2 2 2 2 2 2 2 2 3 3 3 3 3 3 3 3 3 4
2 2 2 3 3 3 3 3 3 3 4 4 4 4 4 4 4 3 3 3 3 3 3 3 2 2 1 2 2 2 2 1 2 3 3 3 3 3 3 3 2 2 2
2 2 2 3 3 3 3 3 2 3 3 3 4 4 5 5 5 4 4 4 3 3 3 3 3 2 2 2 2 2 2 1 1 1 2 2 2 2 2 2 2 2 2
2 2 2 2 2 2 3 3 3 3 3 3 3 4 5 6 7 6 4 4 5 4 3 3 3 3 3 3 4 3 3 2 1 2 2 1 1 1 1 2 2 3 3
2 2 2 2 2 3 3 4 3 3 3 4 4 4 4 5 6 7 7 7 8 6 6 5 4 5 5 5 4 4 3 3 2 2 2 2 2 2 2 2 3 3 3
2 2 2 2 3 3 3 4 5 3 3 4 4 4 3 3 4 3 4 5 6 8 9 7 6 7 6 6 6 5 5 4 3 3 3 2 2 3 3 3 4 4 4
2 2 2 2 2 3 3 3 4 3 3 4 4 4 4 4 4 3 3 3 3 4 6 6 6 6 5 6 7 6 5 3 1 2 3 2 2 3 2 2 4 6 5
2 2 2 2 3 4 4 4 2 2 3 4 4 4 4 4 5 4 4 4 4 3 3 5 5 4 4 6 7 5 5 4 3 2 3 3 2 2 2 2 3 5 6
2 2 2 2 3 4 4 4 3 2 3 3 3 3 5 5 5 5 5 4 5 4 3 2 2 2 3 5 8 7 6 5 3 3 4 4 3 2 2 1 2 2 3
Wind_Direction
83 76 74 72 79 83 87 91 93 93 91 92 98 105 103 96 97 94 80 99 112 145 152 157 166 181 180 179 177 178 180 182 181 181 185 195 202 205 205 211 207 209 207
93 90 82 83 85 90 92 95 98 97 91 90 90 96 98 93 85 84 73 66 105 134 152 167 175 174 177 183 187 192 190 185 176 177 187 195 202 208 220 223 216 215 215
95 96 96 88 87 94 95 94 93 93 94 90 86 89 92 92 88 75 68 52 46 89 121 151 158 162 181 185 189 193 191 183 175 182 191 199 206 215 225 227 222 218 216
95 94 94 91 92 97 99 101 97 97 93 93 89 80 80 82 79 73 67 64 60 49 48 81 97 119 158 184 198 192 181 174 177 193 204 209 214 218 221 224 224 214 209
97 101 98 96 97 97 96 107 97 106 109 105 97 80 72 77 74 79 78 75 77 65 25 12 27 115 139 175 198 188 187 186 188 197 213 219 220 220 222 224 223 216 211
101 102 100 99 103 101 93 101 105 96 106 113 99 78 61 63 68 57 36 40 59 133 302 323 329 15 141 231 201 226 197 191 193 202 219 232 235 231 222 226 229 225 218
112 109 110 104 109 115 121 125 115 108 107 116 94 67 42 47 52 35 15 338 299 243 193 190 147 13 313 303 226 249 243 232 228 227 228 229 236 236 233 227 227 228 227
124 131 124 129 128 124 121 129 131 125 139 144 125 110 43 4 0 2 5 254 283 264 220 195 169 195 266 283 276 253 256 249 246 242 230 222 225 219 221 224 221 227 231
133 137 145 146 148 147 157 164 160 156 170 182 153 148 154 206 306 346 347 327 306 266 247 207 195 212 221 238 259 267 249 246 248 258 257 230 199 195 200 236 252 247 239
148 153 158 156 159 159 167 182 172 172 164 179 176 173 169 159 159 298 333 334 307 285 273 250 238 229 231 236 229 205 194 190 220 277 283 197 179 204 217 248 261 244 231
154 162 164 164 169 175 183 186 173 179 182 183 177 162 156 153 163 176 247 294 334 300 274 256 244 230 243 243 226 129 133 141 126 111 74 54 92 100 143 279 299 313 306
237 193 172 173 180 184 193 197 194 195 196 193 185 179 174 176 182 177 206 227 251 285 290 270 250 232 211 205 165 123 120 104 99 98 85 69 59 52 41 15 1 360 356
225 223 192 185 190 198 196 190 192 205 199 195 197 198 198 201 172 165 171 191 215 276 293 289 249 237 213 179 163 131 119 110 104 92 84 76 68 59 44 31 27 26 16
225 216 198 198 206 201 195 183 192 203 194 201 208 200 196 201 182 178 175 167 175 242 250 250 239 208 206 180 147 126 122 116 109 97 91 84 75 69 63 56 45 37 37
222 212 203 199 207 202 195 184 195 208 195 204 212 208 204 203 191 191 184 182 175 203 242 229 215 205 182 160 138 126 125 119 113 100 95 89 83 77 73 66 54 48 46
229 211 216 207 202 206 203 194 201 202 197 211 212 209 212 212 199 192 191 196 195 191 218 219 214 195 178 157 131 134 131 132 127 120 114 108 100 92 86 75 65 59 62
220 214 217 217 219 222 216 204 217 205 204 221 222 214 223 212 203 200 194 193 192 185 209 227 199 174 175 169 137 132 138 139 141 138 129 117 107 99 94 86 75 68 66
220 223 217 223 229 226 219 210 221 217 212 222 228 222 228 213 211 207 200 202 200 194 196 205 193 184 187 178 158 149 144 140 145 137 140 132 126 120 107 94 83 77 69
226 224 217 220 227 227 221 215 214 218 218 224 222 220 225 212 222 217 207 206 206 197 188 184 182 169 171 167 152 147 146 145 163 154 150 148 144 143 135 122 109 98 88
213 222 226 230 229 229 222 219 209 216 223 231 230 228 227 219 222 216 211 206 196 184 170 172 169 171 174 165 167 177 177 177 184 178 166 161 158 161 159 153 153 141 129
219 219 223 237 236 223 220 219 216 219 225 236 242 242 239 231 225 216 212 200 187 182 179 182 184 180 188 185 195 187 187 181 204 201 190 196 192 202 206 208 203 188 177
236 225 223 230 239 243 239 224 214 222 231 237 249 255 256 245 230 226 219 208 196 191 192 194 202 206 210 202 189 183 172 175 206 185 186 209 196 218 220 218 212 201 194
207 224 232 228 243 258 250 237 226 224 231 238 244 251 256 248 231 226 222 215 214 212 202 195 205 214 208 200 184 186 192 193 200 170 174 212 206 228 228 219 210 206 202
209 219 230 234 242 261 255 247 240 231 241 247 248 244 242 249 236 216 213 218 227 228 220 209 212 218 212 197 190 187 183 174 158 165 178 208 206 226 233 226 216 210 206
218 220 229 235 244 264 257 251 239 234 245 257 257 250 240 242 238 216 207 218 232 241 223 202 199 203 195 186 178 165 166 175 200 203 184 200 203 213 228 236 224 211 209
216 220 238 244 251 259 254 247 227 227 245 259 264 258 246 240 236 216 210 213 226 231 207 189 183 192 194 187 185 190 185 187 188 204 184 188 186 179 216 216 222 209 208